Weather History for Butte, MT

Change the Weather History Date:

Thursday, December 19, 2013

  Actual Average Record
Temperature  
Mean Temperature 10 °F 17 °F  
Max Temperature 29 °F 29 °F 52 °F (2004)
Min Temperature -10 °F 4 °F -27 °F (1945)
Degree Days  
Heating Degree Days 55 48  
Month to date heating degree days 982 897  
Since 1 July heating degree days 3242 3387  
Cooling Degree Days 0 0  
Month to date cooling degree days 0 0  
Year to date cooling degree days 104 81  
Moisture  
Dew Point 9 °F    
Average Humidity 79    
Maximum Humidity 92    
Minimum Humidity 66    
Precipitation  
Precipitation 0.05 in 0.01 in 0.60 in (1925)
Month to date precipitation 0.18 0.31  
Year to date precipitation 11.28 12.57  
Sea Level Pressure  
Sea Level Pressure 29.92 in    
Wind  
Wind Speed 4 mph (WNW)    
Max Wind Speed 14 mph    
Max Gust Speed 17 mph    
Visibility 4 miles    
Events Snow    
T = Trace of Precipitation, MM = Missing Value Source: NWS Daily Summary

Daily Weather History Graph

Daily Weather History Graph

Search for Another Location

Airport:

Trip Planner

Search our weather history database for the weather conditions in past years. The results will help you decide how hot, cold, wet, or windy it might be!

Date:

Astronomy

Dec. 19, 2013 Rise Set
Actual Time 8:07 AM MST 4:46 PM MST
Civil Twilight 7:33 AM MST 5:21 PM MST
Nautical Twilight 6:55 AM MST 5:59 PM MST
Astronomical Twilight 6:18 AM MST 6:35 PM MST
Moon 7:22 PM MST (12/19) 9:22 AM MST (12/19)
Length of Visible Light 9h 48m
Length of Day
8h 38m
Waning Gibbous, 95% of the Moon is Illuminated
Dec 19
Waning Gibbous
Dec 25
Last Quarter
Jan 1
New
Jan 7
First Quarter
Jan 15
Full

Hourly Weather History & Observations

Time (MST) Temp. Windchill Dew Point Humidity Pressure Visibility Wind Dir Wind Speed Gust Speed Precip Events Conditions
12:05 AM 28.4 °F - 26.6 °F 93% 29.69 in 2.0 mi Calm Calm - 0.01 in Snow Light Snow
12:12 AM 28.4 °F - 26.6 °F 93% 29.69 in 2.0 mi Calm Calm - 0.01 in Snow Light Snow
12:23 AM 28.4 °F - 26.6 °F 93% 29.69 in 1.8 mi Calm Calm - 0.01 in Snow Light Snow
12:53 AM 27.0 °F 18.7 °F 25.0 °F 92% 29.72 in 1.2 mi WNW 8.1 mph - 0.01 in Snow Light Snow
1:06 AM 26.6 °F 19.1 °F 24.8 °F 93% 29.69 in 1.8 mi WNW 6.9 mph - 0.01 in Snow Light Snow
1:09 AM 26.6 °F 20.0 °F 24.8 °F 93% 29.69 in 2.0 mi WNW 5.8 mph - 0.01 in Snow Light Snow
1:25 AM 26.6 °F 22.6 °F 24.8 °F 93% 29.69 in 4.0 mi NW 3.5 mph - 0.01 in Snow Light Snow
1:46 AM 26.6 °F 21.2 °F 24.8 °F 93% 29.69 in 5.0 mi NW 4.6 mph - 0.01 in Snow Light Snow
1:53 AM 27.0 °F - 24.1 °F 89% 29.73 in 6.0 mi Calm Calm - 0.01 in   Overcast
2:15 AM 26.6 °F 22.6 °F 24.8 °F 93% 29.69 in 2.5 mi WNW 3.5 mph - 0.00 in Snow Light Snow
2:20 AM 26.6 °F 20.0 °F 24.8 °F 93% 29.69 in 2.0 mi WNW 5.8 mph - 0.00 in Snow Light Snow
2:31 AM 26.6 °F 20.0 °F 24.8 °F 93% 29.69 in 1.8 mi WNW 5.8 mph - 0.00 in Snow Light Snow
2:44 AM 26.6 °F 20.0 °F 24.8 °F 93% 29.70 in 2.0 mi WNW 5.8 mph - 0.00 in Snow Light Snow
2:53 AM 27.0 °F 19.5 °F 24.1 °F 89% 29.73 in 2.0 mi West 6.9 mph - 0.00 in Snow Light Snow
3:14 AM 23.0 °F 12.4 °F 19.4 °F 86% 29.71 in 1.2 mi West 10.4 mph - 0.00 in Snow Light Snow
3:30 AM 19.4 °F 7.9 °F 15.8 °F 86% 29.72 in 1.2 mi North 10.4 mph - 0.00 in Snow Light Snow
3:39 AM 17.6 °F 5.7 °F 12.2 °F 79% 29.73 in 1.0 mi NNW 10.4 mph - 0.01 in Snow Light Snow
3:53 AM 15.1 °F 1.1 °F 10.9 °F 84% 29.83 in 1.2 mi NW 12.7 mph - 0.01 in Snow Light Snow
4:32 AM 14.0 °F 2.9 °F 10.4 °F 86% 29.76 in 0.8 mi NW 8.1 mph - 0.00 in Snow Light Snow
4:43 AM 12.2 °F 2.9 °F 8.6 °F 85% 29.77 in 0.8 mi NW 5.8 mph - 0.00 in Snow Light Snow
4:53 AM 12.9 °F - 10.0 °F 88% 29.88 in 0.8 mi Calm Calm - 0.01 in Snow Light Snow
5:02 AM 12.2 °F 1.7 °F 8.6 °F 85% 29.78 in 1.2 mi NW 6.9 mph - 0.00 in Snow Light Snow
5:53 AM 10.0 °F -0.9 °F 6.1 °F 84% 29.94 in 1.2 mi NNW 6.9 mph - 0.00 in Snow Light Snow
6:53 AM 9.0 °F 2.4 °F 5.0 °F 84% 29.98 in 1.5 mi North 3.5 mph - 0.01 in Snow Light Snow
7:01 AM 8.6 °F -3.7 °F 3.2 °F 79% 29.84 in 2.0 mi NW 8.1 mph - 0.00 in Snow Light Snow
7:13 AM 8.6 °F -2.6 °F 3.2 °F 79% 29.85 in 4.0 mi NW 6.9 mph - 0.00 in Snow Light Snow
7:36 AM 6.8 °F -3.5 °F 1.4 °F 79% 29.87 in 3.0 mi WNW 5.8 mph - 0.00 in Snow Light Snow
7:53 AM 7.0 °F -4.5 °F 1.9 °F 80% 30.05 in 3.0 mi NW 6.9 mph - 0.00 in Snow Light Snow
8:18 AM 6.8 °F -8.6 °F 1.4 °F 79% 29.89 in 1.8 mi NW 11.5 mph - 0.00 in Snow Light Snow
8:49 AM 5.0 °F -6.9 °F -0.4 °F 78% 29.93 in 0.8 mi WNW 6.9 mph - 0.00 in Snow Light Snow
8:53 AM 5.0 °F -8.1 °F -0.0 °F 80% 30.12 in 0.8 mi WNW 8.1 mph - 0.00 in Snow Light Snow
9:00 AM 5.0 °F -4.1 °F -0.4 °F 78% 29.93 in 1.2 mi NW 4.6 mph - 0.00 in Snow Light Snow
9:53 AM 6.1 °F - 1.0 °F 80% 30.16 in 1.0 mi Calm Calm - 0.00 in Snow Light Snow
10:10 AM 6.8 °F - 1.4 °F 79% 29.97 in 2.0 mi Calm Calm - 0.00 in Snow Light Snow
10:26 AM 6.8 °F - 1.4 °F 79% 29.98 in 5.0 mi Calm Calm - 0.00 in Snow Light Snow
10:53 AM 7.0 °F - 1.0 °F 77% 30.18 in 8.0 mi Calm Calm - 0.00 in   Mostly Cloudy
11:53 AM 7.0 °F - 1.9 °F 80% 30.16 in 10.0 mi Calm Calm - N/A   Clear
12:53 PM 10.0 °F - 1.9 °F 70% 30.13 in 10.0 mi Calm Calm - N/A   Clear
1:53 PM 8.1 °F - 1.9 °F 76% 30.08 in 10.0 mi Calm Calm - N/A   Clear
2:53 PM 12.9 °F - 3.9 °F 67% 30.07 in 10.0 mi Calm Calm - N/A   Clear
3:53 PM 8.1 °F 1.4 °F 1.9 °F 76% 30.15 in 10.0 mi SSW 3.5 mph - N/A   Clear
4:53 PM 3.9 °F - -0.9 °F 80% 30.20 in 10.0 mi Calm Calm - N/A   Clear
5:53 PM -2.0 °F -13.9 °F -6.0 °F 83% 30.23 in 10.0 mi South 5.8 mph - N/A   Clear
6:53 PM -4.0 °F -19.0 °F -7.1 °F 87% 30.23 in 10.0 mi SSE 8.1 mph - N/A   Clear
7:53 PM -0.0 °F -11.6 °F -4.0 °F 83% 30.22 in 10.0 mi NW 5.8 mph - N/A   Clear
8:53 PM -2.9 °F -13.3 °F -6.0 °F 87% 30.24 in 10.0 mi Variable 4.6 mph - N/A   Clear
9:53 PM -7.1 °F - -9.9 °F 87% 30.24 in 10.0 mi Calm Calm - N/A   Clear
10:53 PM -9.9 °F -24.9 °F -13.0 °F 86% 30.25 in 10.0 mi SSE 6.9 mph - N/A   Clear
11:53 PM -4.0 °F -12.4 °F -9.0 °F 79% 30.21 in 10.0 mi South 3.5 mph - N/A   Clear